This is the latest recevied weather packets stored in our database for station/object DG4DAA-13. If no packets are shown the sender has not sent any weather packets the latest 10 day(s).
| Time | Temp. | Humidity | Pressure | Rain* | Wind** | Luminosity | Snow |
|---|---|---|---|---|---|---|---|
| 1788155497 | 62° F | 87% | 759.7 mmHg | 0 in | - | - | - |
| 1788153697 | 60° F | 89% | 759.7 mmHg | 0 in | - | - | - |
| 1788151897 | 60° F | 88% | 759.4 mmHg | 0 in | - | - | - |
| 1788150097 | 61° F | 87% | 759.4 mmHg | 0 in | - | - | - |
| 1788148298 | 61° F | 86% | 759.2 mmHg | 0 in | - | - | - |
| 1788146498 | 61° F | 85% | 759.4 mmHg | 0 in | - | - | - |
| 1788144698 | 59° F | 83% | 759.1 mmHg | 0 in | - | - | - |
| 1788142898 | 60° F | 82% | 759 mmHg | 0 in | - | - | - |
| 1788141100 | 61° F | 81% | 758.9 mmHg | 0 in | - | - | - |
| 1788139302 | 60° F | 84% | 759.4 mmHg | 0 in | - | - | - |
| 1788139298 | 60° F | 84% | 759.4 mmHg | 0 in | - | - | - |
| 1788137498 | 60° F | 85% | 759.6 mmHg | 0 in | - | - | - |
| 1788135698 | 60° F | 86% | 759.7 mmHg | 0 in | - | - | - |
| 1788132098 | 60° F | 85% | 759.9 mmHg | 0 in | - | - | - |
| 1788130298 | 60° F | 84% | 760.2 mmHg | 0 in | - | - | - |
| 1788128498 | 61° F | 84% | 760.2 mmHg | 0 in | - | - | - |
| 1788126698 | 61° F | 84% | 760.6 mmHg | 0 in | - | - | - |
| 1788124898 | 61° F | 83% | 760.6 mmHg | 0 in | - | - | - |
| 1788123098 | 61° F | 83% | 760.7 mmHg | 0 in | - | - | - |
| 1788121298 | 62° F | 82% | 760.6 mmHg | 0 in | - | - | - |
| 1788119498 | 62° F | 81% | 760.8 mmHg | 0 in | - | - | - |
| 1788117699 | 63° F | 80% | 761 mmHg | 0 in | - | - | - |
| 1788115899 | 64° F | 78% | 760.9 mmHg | 0 in | - | - | - |
| 1788114099 | 66° F | 74% | 760.9 mmHg | 0 in | - | - | - |
| 1788112299 | 68° F | 71% | 760.9 mmHg | 0 in | - | - | - |
* Rain latest hour (hover to see other rain measurements)
** Current wind speed in m/s (hover to see current wind gust speed)